Time,TemperatureF,DewpointF,PressureIn,WindDirection,WindDirectionDegrees,WindSpeedMPH,WindSpeedGustMPH,Humidity,HourlyPrecipIn,Conditions,Clouds,dailyrainin,SoftwareType,DateUTC
2013-02-27 00:12:00,14.0,-99.9,-100.00,North,-999,-999.0,-999.0,-999,0.00,,,0.03,,2013-02-27 07:12:00,
2013-02-27 00:22:00,14.0,-99.9,-100.00,North,-999,-999.0,-999.0,-999,0.00,,,0.03,,2013-02-27 07:22:00,
2013-02-27 00:32:00,14.0,-99.9,-100.00,North,-999,-999.0,-999.0,-999,0.00,,,0.03,,2013-02-27 07:32:00,
2013-02-27 01:12:00,10.0,-99.9,-100.00,North,-999,-999.0,-999.0,-999,0.00,,,0.04,,2013-02-27 08:12:00,
2013-02-27 01:22:00,10.0,-99.9,-100.00,North,-999,-999.0,-999.0,-999,0.00,,,0.04,,2013-02-27 08:22:00,
2013-02-27 01:32:00,10.0,-99.9,-100.00,North,-999,-999.0,-999.0,-999,0.00,,,0.04,,2013-02-27 08:32:00,
2013-02-27 01:42:00,10.0,-99.9,-100.00,North,-999,-999.0,-999.0,-999,0.00,,,0.04,,2013-02-27 08:42:00,
2013-02-27 02:12:00,11.0,-99.9,-100.00,North,-999,-999.0,-999.0,-999,0.00,,,0.03,,2013-02-27 09:12:00,
2013-02-27 02:22:00,11.0,-99.9,-100.00,North,-999,-999.0,-999.0,-999,0.00,,,0.03,,2013-02-27 09:22:00,
2013-02-27 02:32:00,11.0,-99.9,-100.00,North,-999,-999.0,-999.0,-999,0.00,,,0.03,,2013-02-27 09:32:00,
2013-02-27 03:13:00,10.0,-99.9,-100.00,North,-999,-999.0,-999.0,-999,-99.99,,,0.03,,2013-02-27 10:13:00,
2013-02-27 03:22:00,10.0,-99.9,-100.00,North,-999,-999.0,-999.0,-999,-99.99,,,0.03,,2013-02-27 10:22:00,
2013-02-27 03:33:00,10.0,-99.9,-100.00,North,-999,-999.0,-999.0,-999,-99.99,,,0.03,,2013-02-27 10:33:00,
2013-02-27 03:42:00,10.0,-99.9,-100.00,North,-999,-999.0,-999.0,-999,-99.99,,,0.03,,2013-02-27 10:42:00,
2013-02-27 04:12:00,8.0,-99.9,-100.00,North,-999,-999.0,-999.0,-999,0.00,,,0.03,,2013-02-27 11:12:00,
2013-02-27 04:22:00,8.0,-99.9,-100.00,North,-999,-999.0,-999.0,-999,0.00,,,0.03,,2013-02-27 11:22:00,
2013-02-27 04:32:00,8.0,-99.9,-100.00,North,-999,-999.0,-999.0,-999,0.00,,,0.03,,2013-02-27 11:32:00,
2013-02-27 04:42:00,8.0,-99.9,-100.00,North,-999,-999.0,-999.0,-999,0.00,,,0.03,,2013-02-27 11:42:00,
2013-02-27 05:22:00,8.0,-99.9,-100.00,North,-999,-999.0,-999.0,-999,0.00,,,0.03,,2013-02-27 12:22:00,
2013-02-27 05:33:00,8.0,-99.9,-100.00,North,-999,-999.0,-999.0,-999,0.00,,,0.03,,2013-02-27 12:33:00,
2013-02-27 05:42:00,8.0,-99.9,-100.00,North,-999,-999.0,-999.0,-999,0.00,,,0.03,,2013-02-27 12:42:00,
2013-02-27 06:12:00,8.0,-99.9,-100.00,North,-999,-999.0,-999.0,-999,0.00,,,0.03,,2013-02-27 13:12:00,
2013-02-27 06:22:00,8.0,-99.9,-100.00,North,-999,-999.0,-999.0,-999,0.00,,,0.03,,2013-02-27 13:22:00,
2013-02-27 06:32:00,8.0,-99.9,-100.00,North,-999,-999.0,-999.0,-999,0.00,,,0.03,,2013-02-27 13:32:00,
2013-02-27 06:42:00,8.0,-99.9,-100.00,North,-999,-999.0,-999.0,-999,0.00,,,0.03,,2013-02-27 13:42:00,
2013-02-27 07:12:00,8.0,-99.9,-100.00,North,-999,-999.0,-999.0,-999,0.00,,,0.01,,2013-02-27 14:12:00,
2013-02-27 07:22:00,8.0,-99.9,-100.00,North,-999,-999.0,-999.0,-999,0.00,,,0.01,,2013-02-27 14:22:00,
2013-02-27 07:32:00,8.0,-99.9,-100.00,North,-999,-999.0,-999.0,-999,0.00,,,0.01,,2013-02-27 14:32:00,
2013-02-27 07:42:00,8.0,-99.9,-100.00,North,-999,-999.0,-999.0,-999,0.00,,,0.01,,2013-02-27 14:42:00,
2013-02-27 08:13:00,8.0,-99.9,-100.00,North,-999,-999.0,-999.0,-999,-99.99,,,0.00,,2013-02-27 15:13:00,
2013-02-27 08:23:00,8.0,-99.9,-100.00,North,-999,-999.0,-999.0,-999,-99.99,,,0.00,,2013-02-27 15:23:00,
2013-02-27 08:32:00,8.0,-99.9,-100.00,North,-999,-999.0,-999.0,-999,-99.99,,,0.00,,2013-02-27 15:32:00,
2013-02-27 08:42:00,8.0,-99.9,-100.00,North,-999,-999.0,-999.0,-999,-99.99,,,0.00,,2013-02-27 15:42:00,
2013-02-27 09:12:00,9.0,-99.9,-100.00,North,-999,-999.0,-999.0,-999,0.00,,,0.00,,2013-02-27 16:12:00,
2013-02-27 09:22:00,9.0,-99.9,-100.00,North,-999,-999.0,-999.0,-999,0.00,,,0.00,,2013-02-27 16:22:00,
2013-02-27 09:32:00,9.0,-99.9,-100.00,North,-999,-999.0,-999.0,-999,0.00,,,0.00,,2013-02-27 16:32:00,
2013-02-27 09:42:00,9.0,-99.9,-100.00,North,-999,-999.0,-999.0,-999,0.00,,,0.00,,2013-02-27 16:42:00,
2013-02-27 10:22:00,13.0,-99.9,-100.00,North,-999,-999.0,-999.0,-999,0.00,,,0.00,,2013-02-27 17:22:00,
2013-02-27 10:32:00,13.0,-99.9,-100.00,North,-999,-999.0,-999.0,-999,0.00,,,0.00,,2013-02-27 17:32:00,
2013-02-27 10:42:00,13.0,-99.9,-100.00,North,-999,-999.0,-999.0,-999,0.00,,,0.00,,2013-02-27 17:42:00,
2013-02-27 11:11:00,17.0,-99.9,-100.00,North,-999,-999.0,-999.0,-999,0.00,,,0.00,,2013-02-27 18:11:00,
2013-02-27 11:22:00,17.0,-99.9,-100.00,North,-999,-999.0,-999.0,-999,0.00,,,0.00,,2013-02-27 18:22:00,
2013-02-27 11:32:00,17.0,-99.9,-100.00,North,-999,-999.0,-999.0,-999,0.00,,,0.00,,2013-02-27 18:32:00,
2013-02-27 11:42:00,17.0,-99.9,-100.00,North,-999,-999.0,-999.0,-999,0.00,,,0.00,,2013-02-27 18:42:00,
2013-02-27 12:02:00,19.0,-99.9,-100.00,North,-999,-999.0,-999.0,-999,0.00,,,0.01,,2013-02-27 19:02:00,
2013-02-27 12:12:00,20.0,-99.9,-100.00,North,-999,-999.0,-999.0,-999,0.01,,,0.01,,2013-02-27 19:12:00,
2013-02-27 12:22:00,20.0,-99.9,-100.00,North,-999,-999.0,-999.0,-999,0.01,,,0.01,,2013-02-27 19:22:00,
2013-02-27 12:33:00,20.0,-99.9,-100.00,North,-999,-999.0,-999.0,-999,0.01,,,0.01,,2013-02-27 19:33:00,
2013-02-27 12:42:00,20.0,-99.9,-100.00,North,-999,-999.0,-999.0,-999,0.01,,,0.01,,2013-02-27 19:42:00,
2013-02-27 13:12:00,22.0,-99.9,-100.00,North,-999,-999.0,-999.0,-999,0.00,,,0.01,,2013-02-27 20:12:00,
2013-02-27 13:22:00,22.0,-99.9,-100.00,North,-999,-999.0,-999.0,-999,0.00,,,0.01,,2013-02-27 20:22:00,
2013-02-27 13:32:00,22.0,-99.9,-100.00,North,-999,-999.0,-999.0,-999,0.00,,,0.01,,2013-02-27 20:32:00,
2013-02-27 13:42:00,22.0,-99.9,-100.00,North,-999,-999.0,-999.0,-999,0.00,,,0.01,,2013-02-27 20:42:00,
2013-02-27 14:12:00,23.0,-99.9,-100.00,North,-999,-999.0,-999.0,-999,0.01,,,-99.99,,2013-02-27 21:12:00,
2013-02-27 14:22:00,23.0,-99.9,-100.00,North,-999,-999.0,-999.0,-999,0.01,,,-99.99,,2013-02-27 21:22:00,
2013-02-27 14:32:00,23.0,-99.9,-100.00,North,-999,-999.0,-999.0,-999,0.01,,,-99.99,,2013-02-27 21:32:00,
2013-02-27 14:42:00,23.0,-99.9,-100.00,North,-999,-999.0,-999.0,-999,0.01,,,-99.99,,2013-02-27 21:42:00,
2013-02-27 15:12:00,24.0,-99.9,-100.00,North,-999,-999.0,-999.0,-999,0.00,,,0.02,,2013-02-27 22:12:00,
2013-02-27 15:22:00,24.0,-99.9,-100.00,North,-999,-999.0,-999.0,-999,0.00,,,0.02,,2013-02-27 22:22:00,
2013-02-27 15:32:00,24.0,-99.9,-100.00,North,-999,-999.0,-999.0,-999,0.00,,,0.02,,2013-02-27 22:32:00,
2013-02-27 15:42:00,24.0,-99.9,-100.00,North,-999,-999.0,-999.0,-999,0.00,,,0.02,,2013-02-27 22:42:00,
2013-02-27 16:22:00,23.0,-99.9,-100.00,North,-999,-999.0,-999.0,-999,0.00,,,0.02,,2013-02-27 23:22:00,
2013-02-27 16:32:00,23.0,-99.9,-100.00,North,-999,-999.0,-999.0,-999,0.00,,,0.02,,2013-02-27 23:32:00,
2013-02-27 16:42:00,23.0,-99.9,-100.00,North,-999,-999.0,-999.0,-999,0.00,,,0.02,,2013-02-27 23:42:00,
2013-02-27 17:13:00,21.0,-99.9,-100.00,North,-999,-999.0,-999.0,-999,0.00,,,0.02,,2013-02-28 00:13:00,
2013-02-27 17:22:00,21.0,-99.9,-100.00,North,-999,-999.0,-999.0,-999,0.00,,,0.02,,2013-02-28 00:22:00,
2013-02-27 17:32:00,21.0,-99.9,-100.00,North,-999,-999.0,-999.0,-999,0.00,,,0.02,,2013-02-28 00:32:00,
2013-02-27 17:42:00,21.0,-99.9,-100.00,North,-999,-999.0,-999.0,-999,0.00,,,0.02,,2013-02-28 00:42:00,
2013-02-27 18:12:00,19.0,-99.9,-100.00,North,-999,-999.0,-999.0,-999,0.00,,,0.02,,2013-02-28 01:12:00,
2013-02-27 18:22:00,19.0,-99.9,-100.00,North,-999,-999.0,-999.0,-999,0.00,,,0.02,,2013-02-28 01:22:00,
2013-02-27 18:32:00,19.0,-99.9,-100.00,North,-999,-999.0,-999.0,-999,0.00,,,0.02,,2013-02-28 01:32:00,
2013-02-27 18:42:00,19.0,-99.9,-100.00,North,-999,-999.0,-999.0,-999,0.00,,,0.02,,2013-02-28 01:42:00,
2013-02-27 19:11:00,14.0,-99.9,-100.00,North,-999,-999.0,-999.0,-999,0.00,,,0.02,,2013-02-28 02:11:00,
2013-02-27 19:22:00,14.0,-99.9,-100.00,North,-999,-999.0,-999.0,-999,0.00,,,0.02,,2013-02-28 02:22:00,
2013-02-27 19:32:00,14.0,-99.9,-100.00,North,-999,-999.0,-999.0,-999,0.00,,,0.02,,2013-02-28 02:32:00,
2013-02-27 19:42:00,14.0,-99.9,-100.00,North,-999,-999.0,-999.0,-999,0.00,,,0.02,,2013-02-28 02:42:00,
2013-02-27 20:11:00,11.0,-99.9,-100.00,North,-999,-999.0,-999.0,-999,0.00,,,0.01,,2013-02-28 03:11:00,
2013-02-27 20:32:00,11.0,-99.9,-100.00,North,-999,-999.0,-999.0,-999,0.00,,,0.01,,2013-02-28 03:32:00,
2013-02-27 20:42:00,11.0,-99.9,-100.00,North,-999,-999.0,-999.0,-999,0.00,,,0.01,,2013-02-28 03:42:00,
2013-02-27 21:11:00,12.0,-99.9,-100.00,North,-999,-999.0,-999.0,-999,0.00,,,0.01,,2013-02-28 04:11:00,
2013-02-27 21:22:00,12.0,-99.9,-100.00,North,-999,-999.0,-999.0,-999,0.00,,,0.01,,2013-02-28 04:22:00,
2013-02-27 21:32:00,12.0,-99.9,-100.00,North,-999,-999.0,-999.0,-999,0.00,,,0.01,,2013-02-28 04:32:00,
2013-02-27 21:42:00,12.0,-99.9,-100.00,North,-999,-999.0,-999.0,-999,0.00,,,0.01,,2013-02-28 04:42:00,
2013-02-27 22:22:00,13.0,-99.9,-100.00,North,-999,-999.0,-999.0,-999,0.00,,,0.01,,2013-02-28 05:22:00,
2013-02-27 22:32:00,13.0,-99.9,-100.00,North,-999,-999.0,-999.0,-999,0.00,,,0.01,,2013-02-28 05:32:00,
2013-02-27 22:43:00,13.0,-99.9,-100.00,North,-999,-999.0,-999.0,-999,0.00,,,0.01,,2013-02-28 05:43:00,
2013-02-27 23:11:00,11.0,-99.9,-100.00,North,-999,-999.0,-999.0,-999,0.00,,,0.01,,2013-02-28 06:11:00,
2013-02-27 23:22:00,11.0,-99.9,-100.00,North,-999,-999.0,-999.0,-999,0.00,,,0.01,,2013-02-28 06:22:00,
2013-02-27 23:32:00,11.0,-99.9,-100.00,North,-999,-999.0,-999.0,-999,0.00,,,0.01,,2013-02-28 06:32:00,
2013-02-27 23:42:00,11.0,-99.9,-100.00,North,-999,-999.0,-999.0,-999,0.00,,,0.01,,2013-02-28 06:42:00,